Regional Weather Roundup
Issued by NWS

Home | Current Version | Previous Version | Text Only | Print | Product List | Glossary On
Versions: 1 2 3 4 5 6 7 8 9 10 11 12 13 14 15 16 17 18 19 20 21 22 23 24 25 26 27 28 29 30 31 32 33 34 35 36 37 38 39 40 41 42 43 44 45 46 47 48 49 50
000
ASUS43 KLSX 191759
RWRMO

WEATHER SUMMARY FOR MISSOURI
NATIONAL WEATHER SERVICE SPRINGFIELD MO
100 PM CDT FRI SEP 19 2014

NOTE: "FAIR" INDICATES FEW OR NO CLOUDS BELOW 12,000 FEET WITH NO
       SIGNIFICANT WEATHER AND/OR OBSTRUCTIONS TO VISIBILITY.
       CURRENT SKY AND/OR WEATHER CONDITIONS ARE NOT AVAILABLE FOR
       CHILLICOTHE AND FARMINGTON.

MOZ001>031-035>038-043-044-053-054-191900-
...NORTHERN AND WESTERN MISSOURI...

CITY           SKY/WX    TMP DP  RH WIND       PRES   REMARKS
KANSAS CTY INT CLOUDY    69  65  86 SE9       30.01F FOG
6HR MIN TEMP:  62; 6HR MAX TEMP:  69;

KANSAS C DTWN  CLOUDY    70  65  84 S6        30.02S HAZE
6HR MIN TEMP:  64; 6HR MAX TEMP:  70;

LEE`S SUMMIT   CLOUDY    70  65  84 S9        30.04S
6HR MIN TEMP:  61; 6HR MAX TEMP:  70;

ST JOSEPH      CLOUDY    70  65  84 S12       29.99F
6HR MIN TEMP:  62; 6HR MAX TEMP:  70;

KIRKSVILLE     SUNNY     74  58  57 S16G23    30.05F
6HR MIN TEMP:  50; 6HR MAX TEMP:  74;


$$
MOZ066>068-077>081-088>096-101>105-191900-
...SOUTHWEST MISSOURI...

CITY           SKY/WX    TMP DP  RH WIND       PRES   REMARKS
SPRINGFIELD    MOSUNNY   76  64  66 S7        30.06S
6HR MIN TEMP:  61; 6HR MAX TEMP:  76;

JOPLIN         PTSUNNY   76  67  73 S5        30.04F
6HR MIN TEMP:  62; 6HR MAX TEMP:  78;


$$
MOZ032>034-039>042-045>050-055>058-069>072-191900-
...CENTRAL MISSOURI...

CITY           SKY/WX    TMP DP  RH WIND       PRES   REMARKS
COLUMBIA       MOSUNNY   75  61  61 SE8       30.06F
6HR MIN TEMP:  56; 6HR MAX TEMP:  75;

JEFFERSON CITY MOSUNNY   76  59  55 VRB6      30.05F
6HR MIN TEMP:  53; 6HR MAX TEMP:  76;

ROLLA          PTSUNNY   73  60  63 VRB5      30.06F
6HR MIN TEMP:  55; 6HR MAX TEMP:  74;

SEDALIA        CLOUDY    75  63  66 S8        30.05S
6HR MIN TEMP:  61; 6HR MAX TEMP:  76;

OSAGE BEACH    MOSUNNY   75  61  60 S8        30.06F

$$
MOZ051-052-059>065-191900-
...EAST CENTRAL MISSOURI...

CITY           SKY/WX    TMP DP  RH WIND       PRES   REMARKS
ST LOUIS INTL  MOSUNNY   75  56  51 SE7       30.08F
6HR MIN TEMP:  56; 6HR MAX TEMP:  76;

SPIRIT OF STL  MOSUNNY   75  57  53 SE7       30.06F
6HR MIN TEMP:  49; 6HR MAX TEMP:  75;

ST CHARLES     SUNNY     75  56  51 S13G20    30.07F
6HR MIN TEMP:  50; 6HR MAX TEMP:  76;


$$
MOZ072>076-082>087-097>100-106>115-191900-
...SOUTH CENTRAL AND SOUTHEAST MISSOURI...

CITY           SKY/WX    TMP DP  RH WIND       PRES   REMARKS
CAPE GIRARDEAU SUNNY     78  60  53 E9        30.07F
6HR MIN TEMP:  53; 6HR MAX TEMP:  78;

FARMINGTON     PTSUNNY   75  57  53 E3        30.10F
6HR MIN TEMP:  54; 6HR MAX TEMP:  75;

POPLAR BLUFF   MOSUNNY   78  58  49 NE7       30.05F
6HR MIN TEMP:  57; 6HR MAX TEMP:  79;

WEST PLAINS    MOSUNNY   75  61  61 SE3       30.09S
6HR MIN TEMP:  53; 6HR MAX TEMP:  75;


$$



USA.gov is the U.S. government's official web portal to all federal, state and local government web resources and services.